Skip Page Navigation
NASA JPL Caltech
NASA Logo - Jet Propulsion Laboratory + View the NASA Portal
+ Near-Earth Object (NEO) Program
Search JPL
JPL Home Earth Solar System Stars & Galaxies Technology
JPL Solar System Dynamics
BODIES ORBITS EPHEMERIDES TOOLS PHYSICAL DATA DISCOVERY FAQ SITE MAP
JPL Small-Body Database Browser
Search: [ help ]  
(2006 KV89)
Classification: Apollo [NEO, PHA]          SPK-ID: 3335050
Ephemeris | Orbit Diagram | Orbital Elements | Physical Parameters | Close-Approach Data ]

[ hide orbit diagram ]
Orbit Diagram
Note: Make sure you have Java enabled on your browser to see the applet. This applet is provided as a 3D orbit visualization tool. The applet was implemented using 2-body methods, and hence should not be used for determining accurate long-term trajectories (over several years or decades) or planetary encounter circumstances. For accurate long-term ephemerides, please instead use our Horizons system.
Orbit Viewer

Additional Notes: the orbits shown in the applet are color coded. The planets are white lines, and the asteroid/comet is a blue line. The bright white line indicates the portion of the orbit that is above the ecliptic plane, and the darker portion is below the ecliptic plane. Likewise for the asteroid/comet orbit, the light blue indicates the portion above the ecliptic plane, and the dark blue the portion below the ecliptic plane.

Orbit Viewer applet originally written and kindly provided by Osamu Ajiki (AstroArts), and further modified by Ron Baalke (JPL).


Orbital Elements at Epoch 2456400.5 (2013-Apr-18.0) TDB
Reference: JPL 18 (heliocentric ecliptic J2000)
 Element Value Uncertainty (1-sigma)   Units 
e .2727870978455851 1.616e-07  
a 1.150203275993341 2.963e-08 AU
q .836442662402633 2.0104e-07 AU
i 3.554555919932262 2.1081e-05 deg
node 71.73825627909511 6.1807e-05 deg
peri 87.71590565339956 7.1477e-05 deg
M 262.7796666326902 9.5826e-05 deg
tp 2456522.178804010982
(2013-Aug-17.67880401)
0.00012455 JED
period 450.5679823011452
1.23
1.741e-05
4.767e-08
d
yr
n .7989915265647695 3.0873e-08 deg/d
Q 1.463963889584049 3.7712e-08 AU
  Orbit Determination Parameters
   # obs. used (total)      64  
   data-arc span      1884 days (5.16 yr)  
   first obs. used      2006-05-28  
   last obs. used      2011-07-25  
   planetary ephem.      DE405  
   SB-pert. ephem.      SB405-CPV-2  
   condition code      0  
   fit RMS      .57127  
   data source      ORB  
   producer      Otto Matic  
   solution date      2011-Sep-14 20:10:10  

Additional Information
 Earth MOID = .0140606 AU 
 T_jup = 5.427 
[ show covariance matrix ]

Ephemeris | Orbit Diagram | Orbital Elements | Physical Parameters | Close-Approach Data ]

Physical Parameter Table
Parameter Symbol Value Units Sigma Reference Notes
absolute magnitude H 21.215 mag .5098 18 autocmod 2.5a

[ show close-approach data ]
Ephemeris | Orbit Diagram | Orbital Elements | Physical Parameters | Close-Approach Data ]
ABOUT SSD CREDITS/AWARDS PRIVACY/COPYRIGHT GLOSSARY LINKS
FirstGov 2013-May-19 19:22 UT
(server date/time)  
NASA Home Page
Site Manager:   Donald K. Yeomans
Webmaster  Alan B. Chamberlin